Weather History for Apalachicola, FL

Change the Weather History Date:

Wednesday, December 5, 2012

  Actual Average Record
Temperature  
Mean Temperature 64 °F 57 °F  
Max Temperature 77 °F 68 °F 78 °F (1977)
Min Temperature 50 °F 47 °F 33 °F (1991)
Degree Days  
Heating Degree Days 1    
Month to date heating degree days 7  
Since 1 July heating degree days 210  
Cooling Degree Days 0    
Month to date cooling degree days 0  
Year to date cooling degree days 2758  
Growing Degree Days 13 (Base 50)    
Moisture  
Dew Point 54 °F    
Average Humidity 72    
Maximum Humidity 93    
Minimum Humidity 50    
Precipitation  
Precipitation 0.00 in 0.12 in 1.09 in (1954)
Month to date precipitation 0.00 0.59  
Year to date precipitation 55.63 54.98  
Sea Level Pressure  
Sea Level Pressure 30.12 in    
Wind  
Wind Speed 3 mph (East)    
Max Wind Speed 14 mph    
Max Gust Speed 18 mph    
Visibility 6 miles    
Events Fog    
T = Trace of Precipitation, MM = Missing Value Source: NWS Daily Summary

Daily Weather History Graph

Daily Weather History Graph

Search for Another Location

Airport:

Trip Planner

Search our weather history database for the weather conditions in past years. The results will help you decide how hot, cold, wet, or windy it might be!

Date:

Astronomy

Dec. 05, 2012 Rise Set
Actual Time 7:21 AM EST 5:40 PM EST
Civil Twilight 6:55 AM EST 6:06 PM EST
Nautical Twilight 6:25 AM EST 6:36 PM EST
Astronomical Twilight 5:56 AM EST 7:05 PM EST
Moon No Moon Rise 12:04 PM EST (12/5)
Length of Visible Light 11h 11m
Length of Day
10h 19m
Waning Gibbous, 60% of the Moon is Illuminated
Dec 5
Waning Gibbous
Dec 6
Last Quarter
Dec 13
New
Dec 20
First Quarter
Dec 28
Full

Hourly Weather History & Observations

Time (EST) Temp. Dew Point Humidity Pressure Visibility Wind Dir Wind Speed Gust Speed Precip Events Conditions
12:53 AM 54.0 °F 51.1 °F 90% 30.19 in 10.0 mi Calm Calm - N/A   Clear
1:53 AM 53.1 °F 50.0 °F 89% 30.19 in 10.0 mi ESE 3.5 mph - N/A   Clear
2:53 AM 51.1 °F 48.9 °F 92% 30.18 in 10.0 mi Calm Calm - N/A   Clear
3:53 AM 55.9 °F 53.1 °F 90% 30.16 in 10.0 mi East 3.5 mph - N/A   Clear
4:53 AM 52.0 °F 48.9 °F 89% 30.16 in 10.0 mi ENE 4.6 mph - N/A   Clear
5:53 AM 53.1 °F 50.0 °F 89% 30.17 in 4.0 mi Calm Calm - N/A   Clear
6:07 AM 53.6 °F 50.0 °F 88% 30.17 in 1.5 mi Calm Calm - N/A   Scattered Clouds
6:17 AM 51.8 °F 51.8 °F 100% 30.17 in 5.0 mi ENE 3.5 mph - N/A   Partly Cloudy
6:48 AM 51.8 °F 48.2 °F 88% 30.18 in 1.5 mi Calm Calm - N/A   Clear
6:51 AM 50.0 °F 48.2 °F 94% 30.18 in 0.8 mi Calm Calm - N/A   Mist
6:53 AM 50.0 °F 48.0 °F 93% 30.18 in 0.5 mi Calm Calm - N/A Fog Fog
7:04 AM 51.8 °F 48.2 °F 88% 30.18 in 1.5 mi NE 3.5 mph - N/A   Partly Cloudy
7:07 AM 53.6 °F 48.2 °F 82% 30.18 in 3.0 mi ENE 4.6 mph - N/A   Partly Cloudy
7:53 AM 55.9 °F 54.0 °F 93% 30.19 in 8.0 mi ENE 3.5 mph - N/A   Clear
9:53 AM 71.1 °F 63.0 °F 75% 30.20 in 10.0 mi East 4.6 mph - N/A   Partly Cloudy
10:53 AM 73.0 °F 59.0 °F 61% 30.19 in 10.0 mi Variable 3.5 mph - N/A   Clear
11:53 AM 73.9 °F 57.9 °F 57% 30.17 in 10.0 mi ESE 5.8 mph - N/A   Clear
12:53 PM 75.9 °F 57.0 °F 52% 30.14 in 10.0 mi SE 4.6 mph - N/A   Clear
1:53 PM 75.0 °F 55.0 °F 50% 30.09 in 10.0 mi ESE 8.1 mph - N/A   Clear
2:53 PM 75.0 °F 57.0 °F 53% 30.08 in 10.0 mi SE 9.2 mph - N/A   Clear
3:53 PM 69.1 °F 62.1 °F 78% 30.07 in 10.0 mi SSE 10.4 mph - N/A   Clear
4:53 PM 68.0 °F 62.1 °F 81% 30.07 in 10.0 mi SE 3.5 mph - N/A   Clear
5:53 PM 66.0 °F 61.0 °F 84% 30.08 in 10.0 mi Calm Calm - N/A   Clear
6:53 PM 62.1 °F 59.0 °F 90% 30.08 in 10.0 mi Calm Calm - N/A   Clear
7:53 PM 60.1 °F 57.0 °F 90% 30.08 in 10.0 mi Calm Calm - N/A   Clear
8:43 PM 57.2 °F 55.4 °F 94% 30.08 in 6.0 mi Calm Calm - N/A   Partly Cloudy
8:51 PM 57.2 °F 55.4 °F 94% 30.08 in 1.8 mi Calm Calm - N/A   Partly Cloudy
8:53 PM 57.9 °F 55.9 °F 93% 30.08 in 1.2 mi Calm Calm - N/A   Scattered Clouds
9:02 PM 57.2 °F 55.4 °F 94% 30.08 in 3.0 mi Calm Calm - N/A   Scattered Clouds
9:37 PM 57.2 °F 55.4 °F 94% 30.08 in 10.0 mi Calm Calm - N/A   Mostly Cloudy
9:46 PM 57.2 °F 53.6 °F 88% 30.08 in 10.0 mi Calm Calm - N/A   Scattered Clouds
9:53 PM 57.0 °F 53.1 °F 87% 30.08 in 10.0 mi Calm Calm - N/A   Scattered Clouds
10:16 PM 55.4 °F 53.6 °F 94% 30.08 in 10.0 mi Calm Calm - N/A   Mostly Cloudy
10:20 PM 55.4 °F 53.6 °F 94% 30.08 in 1.2 mi Calm Calm - N/A   Mostly Cloudy
10:28 PM 55.4 °F 53.6 °F 94% 30.08 in 0.2 mi Calm Calm - N/A Fog Fog
10:37 PM 53.6 °F 51.8 °F 94% 30.08 in 0.5 mi Calm Calm - N/A Fog Fog
10:47 PM 53.6 °F 51.8 °F 94% 30.07 in 2.0 mi NE 6.9 mph - N/A   Mostly Cloudy
10:51 PM 55.4 °F 53.6 °F 94% 30.07 in 3.0 mi NE 5.8 mph - N/A   Scattered Clouds
10:53 PM 55.0 °F 53.1 °F 93% 30.07 in 3.0 mi NE 5.8 mph - N/A   Scattered Clouds
11:27 PM 55.4 °F 53.6 °F 94% 30.07 in 1.2 mi Calm Calm - N/A   Clear
11:35 PM 55.4 °F 51.8 °F 88% 30.07 in 0.5 mi Calm Calm - N/A Fog Fog
11:48 PM 55.4 °F 53.6 °F 94% 30.07 in 1.8 mi NE 3.5 mph - N/A   Scattered Clouds
11:50 PM 55.4 °F 53.6 °F 94% 30.07 in 4.0 mi NE 3.5 mph - N/A   Scattered Clouds
11:53 PM 55.0 °F 53.1 °F 93% 30.07 in 10.0 mi NE 3.5 mph - N/A   Scattered Clouds